Location: Newark
(49.3000°N, 9.4667°E)
Time: 05:45:39
(UTC+00:00)

Transit 4A - Pass Details

Date: 30 May 2019
Orbit: 862 x 983 km, 66.8° (Epoch: 19 June)

Event Time Altitude Azimuth Distance (km) Brightness Sun altitude
Rises 21:30:10 0° 322° (NW) 3,698 12.7 -14.8°
Reaches altitude 10° 21:32:46 10° 320° (NW) 2,746 11.6 -15.0°
Maximum altitude 21:39:09 66° 240° (WSW) 1,061 8.1 -15.4°
Enters shadow 21:43:12 23° 164° (SSE) 1,926 8.9 -15.7°
